Regional Weather Roundup
Issued by NWS

Home | Current Version | Previous Version | Text Only | Print | Product List | Glossary Off
Versions: 1 2 3 4 5 6 7 8 9 10 11 12 13 14 15 16 17 18 19 20 21 22 23 24 25 26 27 28 29 30 31 32 33 34 35 36 37 38 39 40 41 42 43 44 45 46 47 48 49 50

186
ASUS43 KBIS 270002
RWRND

NORTH DAKOTA REGIONAL WEATHER ROUNDUP
NATIONAL WEATHER SERVICE BISMARCK ND
600 PM CST SUN FEB 26 2017

NOTE: "FAIR" INDICATES FEW OR NO CLOUDS BELOW 12,000 FEET WITH NO
SIGNIFICANT WEATHER AND/OR OBSTRUCTIONS TO VISIBILITY.


NDZ001>003-009>011-017-270100-
NORTHWEST NORTH DAKOTA

CITY           SKY/WX    TMP DP  RH WIND       PRES   REMARKS
WILLISTON      CLOUDY    23  15  71 W8        29.80R WCI  14
6HR MIN TEMP:  21; 6HR MAX TEMP:  24;

MINOT          FAIR      20  11  68 SW10      29.79R WCI   9
MINOT AFB      CLEAR     16  10  77 SW10      29.79R WCI   3
$$

NDZ018>021-031>035-040>046-270100-
SOUTHWEST NORTH DAKOTA

CITY           SKY/WX    TMP DP  RH WIND       PRES   REMARKS
BISMARCK       FAIR      20  14  77 E9        29.82R WCI   9
6HR MIN TEMP:  20; 6HR MAX TEMP:  23; 6HR PCP: TRACE;

DICKINSON      FLURRIES  23  16  74 N13       29.75R WCI  11
GARRISON         N/A     18  12  77 SW6       29.80R WCI  10
6HR MIN TEMP:  16; 6HR MAX TEMP:  22;

HETTINGER ARPT CLOUDY    28  23  81 NW17      29.76R WCI  16
$$

NDZ004>008-012>016-024-026-027-054-270100-
NORTHEAST NORTH DAKOTA

CITY           SKY/WX    TMP DP  RH WIND       PRES   REMARKS
GRAND FORKS    CLEAR     15   4  61 SW8       29.87S WCI   4
GRND FRKS AFB  CLEAR     15   6  69 SW7       29.87S WCI   5
DEVILS LAKE    FAIR      12   7  80 SW8       29.83S WCI   0
$$

NDZ022-023-025-028>030-036>039-047>053-270100-
SOUTHEAST NORTH DAKOTA

CITY           SKY/WX    TMP DP  RH WIND       PRES   REMARKS
FARGO          CLOUDY    19  10  68 CALM      29.90S
6HR MIN TEMP:  17; 6HR MAX TEMP:  21;

JAMESTOWN      CLOUDY    20  15  81 S5        29.82S WCI  13
$$





USA.gov is the U.S. government's official web portal to all federal, state and local government web resources and services.